Starlink 32625

operational
NORAD ID: 62154 Int'l Des: 2024-224 Owner: SPXS Country: US Constellation: starlink
LEOCIRCULAR

关于 Starlink 32625

正在加载描述...

实时位置

正在加载3D地球...

即将过境

高度历史

Altitude vs Time

uPlot chart will show altitude changes over time

两行轨道根数

1 62154U 24224R 25354.42237235 .00005478 00000-0 20849-3 0 9999
2 62154 43.0017 246.0633 0001370 261.1023 98.9673 15.27573191 60240
Epoch: Dec 20, 2025 • Age: 15 hours

当前状态

高度 483.5 km
速度 7.63 km/s
星下点 -5.35°S, 37.76°W
发射日期 Nov 30, 2024
运行时间 1 years
类型 internet

技术详情

分类 Payload
质量 730.00 kg
干质量 700.00 kg
总质量 730.00 kg
长度 0.30 m
直径 4.10 m
跨度 29.00 m
形状 Box + pan
制造商 SPXS
平台类型 Starlink V2M
阶段状态 In Orbit
所有者/国家 SPXS/US

大型星座

Loading constellations...